Find Starlink 31769

NORAD ID: 59617 Int'l Des: 2024-080 Owner: SPXS Country: US Constellation: starlink operational
LEOCIRCULAR

現在のビュー

3D地球を読み込み中...

About Starlink 31769

Starlink 31769 (NORAD 59617) is a starlink constellation satellite (v2 mini) launched Apr 28, 2024 by SPXS of US. It operates in LEO, CIRCULAR orbit with a mass of 730.00 kg.

次回通過

Passes for default location (London). Set your location on the main map for personalized predictions.

高度履歴

Loading altitude history...

軌道要素

1 59617U 24080S 26246.63807824 .00000793 00000-0 38356-4 0 9998
2 59617 43.0019 113.2821 0001356 261.8590 98.2108 15.27578365131744
Epoch: Sep 3, 2026 • Age: 13 hours

現在のステータス

高度 483.2 km
遠地点 / 近地点 N/A
速度 7.63 km/s
衛星直下点 22.05°N, 92.4°E
打ち上げ日 Apr 28, 2024
運用期間 2.3 years
タイプ internet

技術仕様

分類 Payload
質量 730.00 kg
乾燥質量 700.00 kg
総質量 730.00 kg
長さ 0.30 m
直径 4.10 m
スパン 29.00 m
形状 Box + pan
製造者 SPXS
バスタイプ Starlink V2M
フェーズステータス In Orbit
所有者/国 SPXS/US

Most Searched